Charlevoix, MI

4:59 PM EDT on June 22, 2017 (GMT -0400)
Charlevoix Municipal

Weather History for KCVX - December, 2013

Change the Weather History Date:

Wednesday, December 25, 2013

  Actual Average Record
Temperature  
Mean Temperature 20 °F -  
Max Temperature 24 °F 28 °F 39 °F (2006)
Min Temperature 16 °F 19 °F 3 °F (2004)
Degree Days  
Heating Degree Days 45    
Moisture  
Dew Point 17 °F    
Average Humidity 82    
Maximum Humidity 91    
Minimum Humidity 73    
Precipitation  
Precipitation 0.00 in - - ()
Sea Level Pressure  
Sea Level Pressure 30.09 in    
Wind  
Wind Speed 12 mph (SSW)    
Max Wind Speed 17 mph    
Max Gust Speed 25 mph    
Visibility 4 miles    
Events Snow    
Averages and records for this station are not official NWS values.
T = Trace of Precipitation, MM = Missing Value Source: NWS Daily Summary

Daily Weather History Graph

Daily Weather History Graph

Search for Another Location

Airport or City:

Trip Planner

Search our weather history database for the weather conditions in past years. The results will help you decide how hot, cold, wet, or windy it might be!

Date:

Astronomy

Dec. 25, 2013 Rise Set
Actual Time 8:19 AM EST 5:03 PM EST
Civil Twilight 7:45 AM EST 5:37 PM EST
Nautical Twilight 7:07 AM EST 6:15 PM EST
Astronomical Twilight 6:31 AM EST 6:51 PM EST
Moon 12:30 AM EST (12/25) 12:21 PM EST (12/25)
Length of Visible Light 9h 52m
Length of Day
8h 44m
Waning Gibbous, 49% of the Moon is Illuminated
Dec 25
Waning Gibbous
Jan 1
New
Jan 7
First Quarter
Jan 15
Full
Jan 24
Last Quarter

Hourly Weather History & Observations

Time (EST) Temp. Windchill Dew Point Humidity Pressure Visibility Wind Dir Wind Speed Gust Speed Precip Events Conditions
5:32 AM 16.7 °F 2.6 °F 13.1 °F 86% 30.24 in 1.2 mi SSE 13.8 mph 20.7 mph N/A Snow Light Snow
5:35 AM 16.5 °F 3.6 °F 13.1 °F 86% 30.24 in 1.2 mi SSE 11.5 mph 20.7 mph N/A Snow Light Snow
5:55 AM 16.5 °F 3.0 °F 13.1 °F 86% 30.23 in 2.0 mi SSE 12.7 mph 19.6 mph N/A Snow Light Snow
6:15 AM 16.7 °F 2.6 °F 13.1 °F 86% 30.22 in 2.5 mi SSE 13.8 mph 17.3 mph N/A Snow Light Snow
6:35 AM 16.7 °F 2.0 °F 13.5 °F 87% 30.21 in 1.2 mi SSE 15.0 mph - N/A Snow Light Snow
6:55 AM 16.5 °F 1.8 °F 13.5 °F 88% 30.19 in 1.0 mi SSE 15.0 mph 20.7 mph N/A Snow Light Snow
7:14 AM 16.7 °F 2.6 °F 13.5 °F 87% 30.18 in 1.0 mi SSE 13.8 mph 20.7 mph N/A Snow Snow
7:35 AM 17.2 °F 2.7 °F 13.5 °F 85% 30.17 in 2.0 mi SSE 15.0 mph 19.6 mph N/A Snow Light Snow
7:55 AM 17.6 °F 4.3 °F 13.5 °F 84% 30.16 in 5.0 mi SSE 12.7 mph 21.9 mph N/A Snow Light Snow
8:14 AM 17.6 °F 3.2 °F 13.1 °F 83% 30.15 in 4.0 mi South 15.0 mph 23.0 mph N/A Snow Light Snow
8:35 AM 18.0 °F 3.6 °F 13.1 °F 81% 30.15 in 4.0 mi South 15.0 mph 19.6 mph N/A Snow Light Snow
8:55 AM 18.0 °F 4.8 °F 12.9 °F 81% 30.15 in 7.0 mi South 12.7 mph 20.7 mph N/A   Overcast
9:15 AM 18.0 °F 4.8 °F 12.9 °F 81% 30.15 in 4.0 mi South 12.7 mph 19.6 mph N/A Snow Light Snow
9:35 AM 18.1 °F 5.0 °F 13.1 °F 81% 30.15 in 3.0 mi SSE 12.7 mph 17.3 mph N/A Snow Light Snow
9:54 AM 18.1 °F 6.3 °F 13.6 °F 83% 30.14 in 1.5 mi South 10.4 mph 18.4 mph N/A Snow Light Snow
10:15 AM 18.5 °F 6.1 °F 14.2 °F 83% 30.14 in 1.8 mi South 11.5 mph 18.4 mph N/A Snow Light Snow
10:35 AM 18.5 °F 6.1 °F 14.5 °F 85% 30.14 in 2.0 mi South 11.5 mph 16.1 mph N/A Snow Light Snow
10:55 AM 18.9 °F 6.5 °F 14.7 °F 84% 30.14 in 2.5 mi South 11.5 mph 17.3 mph N/A Snow Light Snow
11:15 AM 19.4 °F 8.6 °F 15.3 °F 84% 30.13 in 1.5 mi South 9.2 mph 19.6 mph N/A Snow Light Snow
11:35 AM 19.9 °F 6.2 °F 15.4 °F 83% 30.12 in 1.5 mi South 15.0 mph - N/A Snow Light Snow
11:55 AM 20.3 °F 7.2 °F 15.4 °F 81% 30.10 in 1.2 mi South 13.8 mph 23.0 mph N/A Snow Light Snow
12:15 PM 20.3 °F 8.3 °F 15.8 °F 83% 30.09 in 1.0 mi South 11.5 mph 19.6 mph N/A Snow Light Snow
12:35 PM 20.3 °F 8.3 °F 16.2 °F 84% 30.09 in 1.0 mi South 11.5 mph - N/A Snow Light Snow
12:55 PM 20.7 °F 9.5 °F 16.5 °F 84% 30.08 in 1.5 mi South 10.4 mph 17.3 mph N/A Snow Light Snow
1:15 PM 21.0 °F 12.4 °F 16.9 °F 84% 30.07 in 1.5 mi South 6.9 mph - N/A Snow Light Snow
1:34 PM 21.2 °F 10.9 °F 17.6 °F 86% 30.07 in 0.8 mi South 9.2 mph - N/A Snow Light Snow
1:55 PM 21.7 °F 15.5 °F 19.0 °F 89% 30.06 in 0.8 mi SSW 4.6 mph - N/A Snow Snow
2:15 PM 23.0 °F 12.4 °F 20.5 °F 90% 30.05 in 0.5 mi SW 10.4 mph - N/A Snow Snow
2:34 PM 23.0 °F 12.4 °F 20.7 °F 91% 30.05 in 0.5 mi SW 10.4 mph - N/A Snow Snow
2:55 PM 23.0 °F 13.1 °F 20.8 °F 91% 30.05 in 0.8 mi SW 9.2 mph - N/A Snow Light Snow
3:15 PM 23.0 °F 12.4 °F 20.5 °F 90% 30.05 in 1.0 mi SW 10.4 mph 16.1 mph N/A Snow Light Snow
3:35 PM 23.0 °F 11.7 °F 20.3 °F 89% 30.04 in 1.0 mi SW 11.5 mph 16.1 mph N/A Snow Light Snow
3:55 PM 23.0 °F 14.7 °F 20.1 °F 89% 30.04 in 1.2 mi SW 6.9 mph - N/A Snow Light Snow
4:15 PM 23.2 °F 15.0 °F 19.8 °F 87% 30.05 in 1.8 mi SW 6.9 mph - N/A Snow Light Snow
4:35 PM 23.4 °F 16.2 °F 20.1 °F 87% 30.04 in 1.2 mi SW 5.8 mph - N/A Snow Light Snow
4:55 PM 23.4 °F 14.3 °F 19.8 °F 86% 30.04 in 2.5 mi SSW 8.1 mph - N/A Snow Light Snow
5:15 PM 23.7 °F 14.0 °F 19.2 °F 83% 30.05 in 2.5 mi SW 9.2 mph - N/A Snow Light Snow
5:35 PM 23.9 °F 12.9 °F 19.4 °F 83% 30.04 in 4.0 mi WSW 11.5 mph 19.6 mph N/A Snow Light Snow
5:55 PM 23.9 °F 12.3 °F 19.2 °F 82% 30.04 in 5.0 mi WSW 12.7 mph 20.7 mph N/A Snow Light Snow
6:15 PM 23.9 °F 11.7 °F 19.0 °F 82% 30.04 in 7.0 mi WSW 13.8 mph 21.9 mph N/A Snow Light Snow
6:35 PM 23.9 °F 13.5 °F 18.5 °F 80% 30.05 in 5.0 mi WSW 10.4 mph 25.3 mph N/A Snow Light Snow
6:55 PM 23.7 °F 12.6 °F 17.6 °F 77% 30.04 in 7.0 mi WSW 11.5 mph - N/A Snow Light Snow
7:15 PM 23.9 °F 12.9 °F 16.7 °F 74% 30.05 in 10.0 mi WSW 11.5 mph - N/A Snow Light Snow
7:35 PM 23.9 °F 11.2 °F 16.5 °F 73% 30.05 in 10.0 mi WSW 15.0 mph 19.6 mph N/A   Overcast
7:54 PM 24.1 °F 11.5 °F 17.4 °F 76% 30.05 in 10.0 mi West 15.0 mph - N/A Snow Light Snow
8:15 PM 23.9 °F 10.3 °F 18.5 °F 80% 30.05 in 10.0 mi West 17.3 mph 20.7 mph N/A Snow Light Snow
8:35 PM 23.7 °F 10.1 °F 17.8 °F 78% 30.05 in 10.0 mi West 17.3 mph 21.9 mph N/A Snow Light Snow
8:55 PM 23.7 °F 10.1 °F 17.1 °F 76% 30.04 in 10.0 mi West 17.3 mph - N/A   Overcast
9:15 PM 23.7 °F 12.1 °F 17.2 °F 76% 30.04 in 10.0 mi West 12.7 mph 17.3 mph N/A   Overcast
9:34 PM 23.9 °F 12.3 °F 16.9 °F 75% 30.04 in 10.0 mi West 12.7 mph - N/A   Overcast
9:55 PM 24.1 °F 13.7 °F 17.8 °F 77% 30.03 in 10.0 mi West 10.4 mph - N/A   Overcast
10:15 PM 23.9 °F 13.5 °F 17.6 °F 77% 30.03 in 10.0 mi West 10.4 mph - N/A   Overcast
10:34 PM 23.9 °F 12.9 °F 17.1 °F 75% 30.03 in 10.0 mi West 11.5 mph - N/A Snow Light Snow
10:55 PM 23.9 °F 14.2 °F 16.5 °F 73% 30.02 in 10.0 mi West 9.2 mph - N/A   Overcast
11:15 PM 23.9 °F 16.8 °F 16.5 °F 73% 30.02 in 10.0 mi West 5.8 mph - N/A   Overcast
11:34 PM 23.9 °F 15.0 °F 16.7 °F 74% 30.02 in 10.0 mi West 8.1 mph - N/A Snow Light Snow
11:55 PM 23.5 °F 19.1 °F 18.5 °F 81% 30.02 in 3.0 mi WSW 3.5 mph - N/A Snow Light Snow